Location: SE Lincoln, NE
(40.7805°N, 96.6275°W)
Time: 03:45:30
(UTC-05:00)

USA 267 - Pass Details

Date: 15 May 2021
Orbit: 1102 x 1106 km, 123.0° (Epoch: 22 June)

Event Time Altitude Azimuth Distance (km) Brightness Sun altitude
Exits shadow 21:21:23 - 146° (SSE) 3,248 5.1 -8.0°
Reaches altitude 10° 21:22:10 10° 148° (SSE) 2,951 4.9 -8.1°
Maximum altitude 21:28:35 60° 227° (SW) 1,248 3.7 -9.1°
Drops below altitude 10° 21:35:03 10° 307° (NW) 2,967 7.2 -10.1°
Sets 21:37:36 0° 311° (NW) 3,929 8.4 -10.5°
